TITAN 3C TRANSTAGE DEB, 1961

Orbit data source: Space-Track

TITAN 3C TRANSTAGE DEB, 1961 is space debris in LEO originally from a launch on Fri, 15 Oct 1965 UTC launched from the Air Force Eastern Test Range (AFETR). Debris objects in space refer to the collection of defunct objects orbiting the Earth. Examples of debris include non-operational satellites, rocket bodies, and fragments generated from explosions, collisions, or faulty payload assembly.

Loading next visibility...
Identifier
1961, 1965-082GW
Orbit
LEO
Country
Flag of USUS
Related business
Manufacturer
Unknown
Mission
Spacecraft
Bus & Motor
Unknown
Mass
Unknown
Launch date (UTC)
1965-10-15 (61 years ago)
Launch vehicle
Unknown
Launch site
Air Force Eastern Test Range (AFETR)
Object type
Payload
Rocket body
Debris
Shape & HBR
Unknown shape, 0.1 m
Radar Cross Section
Medium (>0.1 m² and <1 m²)

Expand to show TLE details & history
Last TLE update: 7 hours ago

TLE from 7 hours ago
0 TITAN 3C TRANSTAGE DEB
1 01961U 65082GW  26236.94942246  .00006672  00000-0  32578-3 0  9996
2 01961  31.8537 202.3608 0003313 216.6003 143.4427 15.16986156254605
Epoch: 2026-08-24T22:47Z
TLE epoch observation values (Epoch: 2026-08-24T22:47:10.100Z)
Latitude
-0°
Longitude
-112.65507°
Altitude
515.379 km
Speed
7.607 km/s
True Right ascension
13h 29m 26s
True Declination
0° 00' 00"
Sunlit
Object was in daylight at epoch
Visualization orbit readout
Latitude
Unknown
Longitude
Unknown
Altitude
Unknown
Speed
Unknown
Apparent Right ascension
Unknown
Apparent Declination
Unknown
Sunlit
N/A
Visualization observer readout
Local Sidereal Time
21:12:36
Azimuth
Unknown
Elevation
Unknown
Doppler factor
Unknown
Orbital elements
Apogee altitude
520.966 km
Perigee altitude
516.396 km
Semi-major axis
6,896.818 km
Eccentricity
0.00033
Inclination
31.8537°
RAAN
202.3608°
Arg. of periapsis
216.6003°
True anomaly
143.4653°
Mean anomaly
143.4427°
Eccentric anomaly
143.454°
Mean motion
3.7894 °/min
Orbital period
95 mins
BSTAR
0.00032578

Documentation

Showing up to 5 results
|